Tucson, Arizona, United States (85701)
Lat: 32.22N, Lon: 110.93W
Wx Zone: AZZ504
Local Info
Past Weather Observations for Tuesday, October 28, 2014

NOTE: This archive is for the closest National Weather Service station to Tucson. Information may differ from the station used for current weather conditions.

Click here for Long-term Archive

Time Weather Temperature Dewpoint Humidity Pressure Winds Precip Visibility
23:58
Clear
63°F / 17°C 43°F / 6°C 49% 30.09 in
(1019 mb)
SE 8.1 mph
(SE 13 kph)
- 10SM
22:58
Clear
63°F / 17°C 43°F / 6°C 49% 30.06 in
(1018 mb)
S 6.9 mph
(S 11 kph)
- 10SM
21:58
Clear
64°F / 18°C 46°F / 8°C 52% 30.06 in
(1018 mb)
S 8.1 mph
(S 13 kph)
- 10SM
20:58
Clear
68°F / 20°C 46°F / 8°C 46% 30.06 in
(1018 mb)
W 3.5 mph
(W 6 kph)
- 10SM
19:58
Clear
72°F / 22°C 45°F / 7°C 38% 30.04 in
(1017 mb)
WNW 5.8 mph
(WNW 9 kph)
- 10SM
18:58
Clear
73°F / 23°C 45°F / 7°C 36% 30.04 in
(1017 mb)
NW 8.1 mph
(NW 13 kph)
- 10SM
17:58
Clear
77°F / 25°C 39°F / 4°C 26% 30.01 in
(1016 mb)
NNW 5.8 mph
(NNW 9 kph)
- 10SM
16:58
Clear
81°F / 27°C 30°F / -1°C 16% 30.01 in
(1016 mb)
NW 5.8 mph
(NW 9 kph)
- 10SM
15:58
Clear
82°F / 28°C 34°F / 1°C 17% 30.01 in
(1016 mb)
NNW 5.8 mph
(NNW 9 kph)
- 10SM
14:58
Clear
82°F / 28°C 36°F / 2°C 19% 30.01 in
(1016 mb)
SW 4.6 mph
(SW 7 kph)
- 10SM
13:58
Clear
81°F / 27°C 41°F / 5°C 24% 30.01 in
(1016 mb)
W 5.8 mph
(W 9 kph)
- 10SM
12:58
Clear
81°F / 27°C 41°F / 5°C 24% 30.04 in
(1017 mb)
W 5.8 mph
(W 9 kph)
- 10SM
11:58
Clear
79°F / 26°C 48°F / 9°C 34% 30.06 in
(1018 mb)
ENE 1.2 mph
(ENE 2 kph)
- 10SM
10:58
Clear
75°F / 24°C 48°F / 9°C 39% 30.06 in
(1018 mb)
Calm - 10SM
09:58
Clear
73°F / 23°C 50°F / 10°C 44% 30.09 in
(1019 mb)
SSE 2.3 mph
(SSE 4 kph)
- 10SM
08:58
Clear
68°F / 20°C 50°F / 10°C 53% 30.09 in
(1019 mb)
SE 4.6 mph
(SE 7 kph)
- 10SM
07:58
Clear
61°F / 16°C 48°F / 9°C 63% 30.09 in
(1019 mb)
SE 6.9 mph
(SE 11 kph)
- 10SM
06:58
Clear
57°F / 14°C 48°F / 9°C 72% 30.06 in
(1018 mb)
SSE 8.1 mph
(SSE 13 kph)
- 10SM
05:58
Clear
55°F / 13°C 48°F / 9°C 77% 30.04 in
(1017 mb)
SE 6.9 mph
(SE 11 kph)
- 10SM
04:58
Clear
57°F / 14°C 48°F / 9°C 72% 30.04 in
(1017 mb)
SE 6.9 mph
(SE 11 kph)
- 10SM
03:58
Clear
59°F / 15°C 48°F / 9°C 68% 30.04 in
(1017 mb)
SE 6.9 mph
(SE 11 kph)
- 10SM
02:58
Clear
61°F / 16°C 48°F / 9°C 63% 30.01 in
(1016 mb)
SE 8.1 mph
(SE 13 kph)
- 10SM
01:58
Clear
61°F / 16°C 50°F / 10°C 68% 30.01 in
(1016 mb)
SSE 6.9 mph
(SSE 11 kph)
- 10SM
00:58
Clear
64°F / 18°C 50°F / 10°C 60% 30.01 in
(1016 mb)
SE 5.8 mph
(SE 9 kph)
- 10SM
Time Weather Temperature Dewpoint Humidity Pressure Winds Precip Visibility


Weather for websites

WeatherForYou.com, LLC is not responsible for any damages or problems caused by this service. Current weather conditions are obtained from the closest station including government and personal stations which may have varying degrees of accuracy. Weather forecasts are derived from the NOAA NDFD. Like all things, this site belongs to Jesus Christ... He just trusts me to maintain it. If you have any questions or comments email webmaster@weatherforyou.com

Copyright © 2014, WeatherForYou.com LLC. All rights reserved.